{"data":{"norad_id":46576,"intl_designator":"2020-070AW","name":"STARLINK-1677","alt_names":[],"object_type":"PAYLOAD","status":"ACTIVE","operator":null,"country":"US","launch_date":"2020-10-06","launch_site_code":"AFETR","launch_vehicle":null,"mission":null,"orbit_class":"UNKNOWN","rcs_meters":null,"size_class":null,"mass_kg":null,"dimensions":null,"purposes":["comms"],"wikipedia_slug":null,"has_3d_model":false,"image_url":null,"decayed_at":null,"tle_current":{"epoch":"2026-05-25T06:00:02.000160Z","epoch_age_seconds":53550,"freshness":"FRESH","line1":"1 46576U 20070AW  26145.25002315  .00302424  00000+0  10500-2 0  9995","line2":"2 46576  53.0261 102.3647 0007881  66.2397  27.5021 15.88067909  5798","mean_motion":15.88067909,"eccentricity":0.0007881,"inclination_deg":53.0261,"raan_deg":102.3647,"arg_perigee_deg":66.2397,"mean_anomaly_deg":27.5021,"bstar":0.00105,"rev_number":579,"period_min":90.676223090911,"perigee_km":302.43105272738,"apogee_km":312.96926926054,"semimajor_km":6685.837160994,"source":"CELESTRAK","updated_at":"2026-05-25T13:38:16.513681Z"}}}